Regional Weather Roundup
Issued by NWS

Home | Current Version | Previous Version | Text Only | Print | Product List | Glossary On
Versions: 1 2 3 4 5 6 7 8 9 10 11 12 13 14 15 16 17 18 19 20 21 22 23 24 25 26 27 28 29 30 31 32 33 34 35 36 37 38 39 40 41 42 43 44 45 46 47 48 49 50
486
ASUS45 KBOU 140107
RWRCO

WEATHER ROUNDUP FOR COLORADO
NATIONAL WEATHER SERVICE DENVER/BOULDER CO
600 PM MST SAT FEB 13 2016

NOTE: "FAIR" INDICATES FEW OR NO CLOUDS BELOW 12000 FEET WITH NO
SIGNIFICANT WEATHER AND/OR OBSTRUCTIONS TO VISIBILITY.

COZ001>005-013-030-031-140200-
...NORTHWEST COLORADO...

CITY           SKY/WX    TMP DP  RH WIND       PRES   REMARKS
CRAIG          FAIR      23  17  78 N7        30.13F WCI  15
HAYDEN         FAIR      25  18  74 NE12      30.13F WCI  14
MEEKER         FAIR      35  24  64 CALM      30.17R
MOUNT WERNER   NOT AVBL
STEAMBOAT SPGS FAIR      28  21  76 CALM      30.15S
WALDEN         FAIR      32  18  55 SW28      30.04S WCI  18
$$

COZ006>008-011-140200-
...WEST CENTRAL VALLEYS...

CITY           SKY/WX    TMP DP  RH WIND       PRES   REMARKS
GRAND JUNCTION FAIR      36  31  82 CALM      30.18F
MONTROSE       FAIR      43  27  53 NE6       30.21R
EAGLE          CLEAR     46  19  34 S8        30.19R
RIFLE          FAIR      40  25  55 CALM      30.18S
DELTA          FAIR      45  35  67 CALM      30.18S
NUCLA          FAIR      52  23  32 CALM      30.22S
$$

COZ017>023-064>068-140200-
...SOUTHWEST COLORADO...

CITY           SKY/WX    TMP DP  RH WIND       PRES   REMARKS
DURANGO        FAIR      44  21  40 SW13      30.15R
CORTEZ         FAIR      44  28  53 CALM      30.18R
PAGOSA SPRINGS FAIR      45  17  32 N3        30.19R
TELLURIDE      NOT AVBL
WOLF CREEK PAS FAIR      28  14  54 SW12      30.36R WCI  18
$$

COZ009-010-012-014-032>034-037-058>063-140200-
...CENTRAL COLORADO...

CITY           SKY/WX    TMP DP  RH WIND       PRES   REMARKS
ASPEN          FAIR      37  23  56 CALM      30.18S
BUENA VISTA    FAIR      42  13  29 W13       30.15R
COPPER MTN     FAIR      30   5  34 W25       30.25F WCI  16
BERTHOUD PASS  FAIR      21  10  63 W36G47    30.17F WCI   2
COTTONWOOD PAS FAIR      41   3  20 W13G25    30.20S
GUNNISON       FAIR      21  10  63 E3        30.26S
KREMMLING      FAIR      23  18  80 CALM      30.16S
LEADVILLE      FAIR      31   9  39 W16       30.20F WCI  20
MONARCH PASS   CLOUDY    28   3  34 W21       30.39R WCI  15
SALIDA         NOT AVBL
SUNLIGHT       FAIR      30  18  59 CALM      30.29F
WILKERSON PASS FAIR      30   9  40 NW12G30   30.24F WCI  21
$$

COZ069>075-140200-
...SAN LUIS VALLEY/SANGRE DE CRISTO MOUNTAINS...

CITY           SKY/WX    TMP DP  RH WIND       PRES   REMARKS
ALAMOSA        FAIR      46  14  27 N9        30.13R
LA VETA PASS   FAIR      37  14  38 SW7       30.20R
SAGUACHE       FAIR      45  14  29 NW30G40   30.17R
$$

COZ035-036-038>040-140200-
...NORTHERN COLORADO FRONT RANGE...

CITY           SKY/WX    TMP DP  RH WIND       PRES   REMARKS
DENVER INTL AP MOCLDY    55  16  21 W18       29.94F
DMNS CITY PARK   N/A     57  12  17 SW8G18    29.96F
AURORA         MOCLDY    55  15  20 W18       29.97F
FRONT RANGE AP MOCLDY    46  21  36 SW9       29.96F
ERIE MUNI ARPT FAIR      54  16  22 W13G20    29.93F
BOULDER MUN AP FAIR      55  16  21 W32G48    29.91S
CENTENNIAL     MOCLDY    55  10  16 W13       29.98S
BROOMFIELD     NOT AVBL
FORT COLLINS   FAIR      54  19  26 W25G35    29.89S
LONGMONT       FAIR      57  14  18 W23G33    29.92F
$$

COZ041-046-047-076>085-087-088-140200-
...PIKES PEAK/PALMER DIVIDE AND SOUTHERN FOOTHILLS...

CITY           SKY/WX    TMP DP  RH WIND       PRES   REMARKS
COLO. SPRINGS  MOCLDY    57   6  13 NW13G25   30.04R
A. F. ACADEMY  FAIR      52   6  15 NW10      30.03R
SCHRIEVER AFB  FAIR      51  20  28 N14       30.04R
ELLICOTT       FAIR     N/A N/A N/A N10       30.02R
FALCON         FAIR      45  19  35 NW6       30.07R
FORT CARSON    FAIR      55  13  19 NW21      30.01R
LIMON          FAIR      34  30  85 CALM      29.97R
MONUMENT HILL  FAIR      41  19  42 W16       30.07R
TRINIDAD       FAIR      61   8  12 NW14      29.98R
$$

COZ042>045-048>051-090-091-140200-
...NORTHEAST COLORADO...

CITY           SKY/WX    TMP DP  RH WIND       PRES   REMARKS
GREELEY ARPT   FAIR      37  32  81 SW9       29.91F
AKRON          FAIR      40  35  83 W13       29.89F
BURLINGTON     FAIR      33  29  85 S12       29.95S WCI  24
WRAY           FAIR      36  32  85 SE6       29.92S
STERLING       FAIR      37  34  87 S10       29.87F
HOLYOKE        FAIR      34  32  93 S8        29.89S WCI  27
FORT MORGAN    FAIR      35  32  90 CALM      29.91F
$$

COZ086-089-092>099-140200-
...SOUTHEAST COLORADO...

CITY           SKY/WX    TMP DP  RH WIND       PRES   REMARKS
PUEBLO         FAIR      64   1   8 NW20      29.94R
LA JUNTA       FAIR      40  30  67 NE10      29.95R
LAMAR          FAIR      42  30  62 NE5       29.92R
SPRINGFIELD      N/A     48  33  56 N12       29.91R
$$




USA.gov is the U.S. government's official web portal to all federal, state and local government web resources and services.